GW1364 Weather Reports


time (UTC)temp
F
wind
direction
speed
knots
gust
knots
rain 1hr
in
rain 24hr
in
rain mn
in
humidity
%
barometer
mb
20260508034035 44 115 0.0 0.0 0.00 0.00 0.00 70 1013.8
20260508033532 44 87 0.9 0.9 0.00 0.00 0.00 70 1013.8
20260508033031 44 119 0.0 0.0 0.00 0.00 0.00 70 1013.8
20260508032526 45 121 0.9 0.9 0.00 0.00 0.00 70 1013.6
20260508032024 45 121 0.0 0.0 0.00 0.00 0.00 70 1013.5
20260508031522 45 91 0.0 0.9 0.00 0.00 0.00 70 1013.8
20260508031017 45 122 0.0 0.0 0.00 0.00 0.00 68 1013.5
20260508030514 46 106 0.0 0.0 0.00 0.00 0.00 67 1013.6
20260508030012 46 122 0.0 0.0 0.00 0.00 0.00 66 1013.6
20260508025508 47 118 0.0 0.0 0.00 0.00 0.00 61 1013.5
20260508025005 46 122 0.0 0.0 0.00 0.00 0.00 66 1013.4
20260508024501 46 127 0.0 0.9 0.00 0.00 0.00 67 1013.4
20260508023958 47 125 0.0 0.9 0.00 0.00 0.00 67 1013.3
20260508023454 48 122 0.0 0.0 0.00 0.00 0.00 66 1013.3
20260508022952 48 122 1.7 1.7 0.00 0.00 0.00 65 1013.1
20260508022447 50 112 0.9 0.9 0.00 0.00 0.00 61 1013.2
20260508021944 50 141 0.9 0.9 0.00 0.00 0.00 56 1013.2
20260508021440 51 107 0.0 0.0 0.00 0.00 0.00 54 1013.2
20260508020936 51 98 0.0 0.9 0.00 0.00 0.00 55 1013.1
20260508020435 51 135 0.9 0.9 0.00 0.00 0.00 54 1013.0
20260508015931 50 74 0.9 1.7 0.00 0.00 0.00 57 1012.9
20260508015429 50 114 0.9 0.9 0.00 0.00 0.00 59 1012.8
20260508014925 49 116 0.0 0.9 0.00 0.00 0.00 66 1012.9
20260508014422 49 117 0.0 0.0 0.00 0.00 0.00 71 1012.9
20260508013918 49 173 0.9 0.9 0.00 0.00 0.00 74 1012.8
20260508013414 49 208 1.7 1.7 0.00 0.00 0.00 77 1012.7
20260508012912 48 208 1.7 1.7 0.00 0.00 0.00 79 1012.7
20260508012409 48 127 0.0 0.9 0.00 0.00 0.00 85 1012.3
20260508011907 48 120 0.0 0.0 0.00 0.00 0.00 86 1012.3
20260508011405 48 120 0.0 0.0 0.00 0.00 0.00 87 1012.1
20260508010901 48 109 0.0 0.0 0.00 0.00 0.00 87 1012.2
20260508010359 49 121 0.0 0.0 0.00 0.00 0.00 86 1011.8
20260508005855 50 113 0.0 0.0 0.00 0.00 0.00 84 1011.8
20260508005352 51 109 0.0 0.9 0.00 0.00 0.00 83 1011.5
20260508004849 51 126 0.0 0.0 0.00 0.00 0.00 83 1011.5
20260508004345 51 125 0.0 0.9 0.00 0.00 0.00 83 1011.4
20260508003842 51 168 0.9 0.9 0.00 0.00 0.00 84 1011.6
20260508003338 52 185 1.7 1.7 0.00 0.00 0.00 84 1011.6
20260508002835 52 146 0.9 0.9 0.00 0.00 0.00 83 1011.5
20260508002332 53 111 0.0 0.0 0.00 0.00 0.00 81 1011.6
20260508001828 54 138 1.7 2.6 0.00 0.00 0.00 80 1011.2
20260508001325 55 255 0.9 0.9 0.00 0.00 0.00 75 1011.2
20260508000821 54 197 3.5 3.5 0.00 0.00 0.00 75 1011.2
20260508000319 54 207 3.5 3.5 0.00 0.00 0.00 78 1010.9
20260507235814 55 148 0.9 0.9 0.00 0.00 0.00 79 1010.9
20260507235312 55 231 1.7 1.7 0.00 0.00 0.00 78 1010.9
20260507234809 55 169 0.9 1.7 0.00 0.00 0.00 78 1010.8
20260507234305 56 207 2.6 2.6 0.00 0.00 0.00 78 1010.7
20260507233801 56 199 1.7 1.7 0.00 0.00 0.00 77 1010.6
20260507233259 56 208 5.2 5.2 0.00 0.00 0.00 78 1010.7
20260507232757 56 130 0.9 0.9 0.00 0.00 0.00 77 1010.4
20260507232253 56 214 3.5 3.5 0.00 0.00 0.00 76 1010.4
20260507231749 57 189 4.3 5.2 0.00 0.00 0.00 76 1010.3
20260507231246 57 215 2.6 2.6 0.00 0.00 0.00 76 1010.2
20260507230743 57 216 3.5 3.5 0.00 0.00 0.00 74 1010.2
20260507230241 57 210 2.6 3.5 0.00 0.00 0.00 76 1010.2
20260507225740 57 222 2.6 3.5 0.00 0.00 0.00 76 1010.2
20260507225237 57 223 1.7 1.7 0.00 0.00 0.00 75 1010.1
20260507224732 56 217 3.5 3.5 0.00 0.00 0.00 76 1010.2
20260507224229 56 187 0.9 0.9 0.00 0.00 0.00 76 1010.0
20260507223725 57 197 2.6 2.6 0.00 0.00 0.00 75 1010.1
20260507223222 57 182 2.6 2.6 0.00 0.00 0.00 75 1009.9
20260507222719 57 225 6.1 7.8 0.00 0.00 0.00 74 1009.7
20260507222215 59 149 1.7 2.6 0.00 0.00 0.00 72 1009.6
20260507221712 59 157 5.2 7.8 0.00 0.00 0.00 71 1009.4
20260507221208 58 211 4.3 6.1 0.00 0.00 0.00 73 1009.7
20260507220705 58 235 5.2 7.0 0.00 0.00 0.00 73 1009.6
20260507220204 59 214 5.2 7.0 0.00 0.00 0.00 70 1009.5
20260507215659 59 199 5.2 6.1 0.00 0.00 0.00 72 1009.2
20260507215157 59 234 5.2 6.1 0.00 0.00 0.00 72 1009.2
20260507214654 59 199 5.2 7.8 0.00 0.00 0.00 70 1009.4
20260507214150 59 227 3.5 5.2 0.00 0.00 0.00 72 1009.3
20260507213646 59 192 5.2 6.1 0.00 0.00 0.00 71 1009.3
20260507213144 59 193 3.5 3.5 0.00 0.00 0.00 72 1009.6
20260507212639 59 195 2.6 5.2 0.00 0.00 0.00 71 1009.5
20260507212137 59 218 5.2 6.1 0.00 0.00 0.00 69 1009.3
20260507211634 59 188 4.3 6.1 0.00 0.00 0.00 69 1009.3
20260507211129 60 220 5.2 6.1 0.00 0.00 0.00 68 1009.3
20260507210627 60 131 1.7 2.6 0.00 0.00 0.00 70 1009.3
20260507210123 59 205 1.7 2.6 0.00 0.00 0.00 73 1009.4
20260507205620 60 223 4.3 5.2 0.00 0.00 0.00 68 1009.4
20260507205116 59 190 2.6 3.5 0.00 0.00 0.00 70 1009.3
20260507204613 58 207 4.3 6.1 0.00 0.00 0.00 73 1009.4
20260507204111 57 190 6.1 7.0 0.00 0.00 0.00 72 1009.4
20260507203609 57 223 3.5 5.2 0.00 0.00 0.00 75 1009.6
20260507203106 57 202 3.5 5.2 0.00 0.00 0.00 76 1009.4
20260507202601 58 244 3.5 5.2 0.00 0.00 0.00 74 1009.5
20260507202057 57 147 2.6 2.6 0.00 0.00 0.00 74 1009.7
20260507201553 58 103 0.9 0.9 0.00 0.00 0.00 72 1009.9
20260507201050 57 236 7.0 8.7 0.00 0.00 0.00 72 1009.8
20260507200545 58 223 5.2 6.1 0.00 0.00 0.00 70 1009.9
20260507200041 58 109 1.7 2.6 0.00 0.00 0.00 75 1009.8
20260507195539 57 218 7.0 7.0 0.00 0.00 0.00 77 1009.8
20260507195037 57 219 6.1 7.0 0.00 0.00 0.00 75 1010.1
20260507194532 56 232 4.3 6.1 0.00 0.00 0.00 79 1010.1
20260507194028 55 209 6.1 7.0 0.00 0.00 0.00 80 1010.1
20260507193526 55 208 3.5 5.2 0.00 0.00 0.00 79 1010.1
20260507193023 55 215 3.5 5.2 0.00 0.00 0.00 79 1010.4
20260507192519 55 208 5.2 7.8 0.00 0.00 0.00 79 1010.6
20260507192016 55 215 3.5 3.5 0.00 0.00 0.00 79 1010.2
20260507191511 55 214 4.3 6.1 0.00 0.00 0.00 80 1010.4
20260507191008 55 223 3.5 3.5 0.00 0.00 0.00 82 1010.6
20260507190505 55 220 3.5 5.2 0.00 0.00 0.00 83 1010.4
20260507190005 55 265 3.5 3.5 0.00 0.00 0.00 84 1010.7
20260507185502 54 238 4.3 5.2 0.00 0.00 0.00 83 1010.6
20260507184958 54 214 3.5 3.5 0.00 0.00 0.00 84 1010.8
20260507184456 53 212 3.5 3.5 0.00 0.00 0.00 85 1011.0
20260507183954 53 189 0.9 1.7 0.00 0.00 0.00 83 1010.7
20260507183450 54 193 1.7 2.6 0.00 0.00 0.00 83 1010.8
20260507182948 54 160 0.9 0.9 0.00 0.00 0.00 81 1010.7
20260507182443 53 123 0.0 0.0 0.00 0.00 0.00 84 1010.6
20260507181939 53 190 1.7 1.7 0.00 0.00 0.00 82 1011.0
20260507181436 53 135 0.9 0.9 0.00 0.00 0.00 81 1011.1
20260507180933 54 121 0.0 0.9 0.00 0.00 0.00 81 1011.1
20260507180430 54 204 0.9 1.7 0.00 0.00 0.00 82 1010.9
20260507175925 54 125 0.9 0.9 0.00 0.00 0.00 80 1011.2
20260507175422 54 116 0.0 0.0 0.00 0.00 0.00 81 1010.9
20260507174920 53 113 0.0 0.0 0.00 0.00 0.00 81 1011.1
20260507174417 53 97 0.0 0.9 0.00 0.00 0.00 81 1011.1
20260507173915 53 64 0.9 0.9 0.00 0.00 0.00 82 1011.2
20260507173411 52 66 0.9 0.9 0.00 0.00 0.00 84 1011.1
20260507172908 52 107 0.9 0.9 0.00 0.00 0.00 83 1011.3
20260507172404 52 79 0.0 0.0 0.00 0.00 0.00 83 1011.4
20260507171900 51 83 0.0 0.9 0.00 0.00 0.00 84 1011.5
20260507171357 51 68 3.5 3.5 0.00 0.00 0.00 83 1011.5
20260507170855 52 94 0.9 0.9 0.00 0.00 0.00 82 1011.5
20260507170351 52 32 0.9 1.7 0.00 0.00 0.00 83 1011.3
20260507165847 52 86 0.9 0.9 0.00 0.00 0.00 83 1011.6
20260507165343 52 96 0.9 1.7 0.00 0.00 0.00 84 1011.6
20260507164839 51 92 0.9 0.9 0.00 0.00 0.00 83 1011.9
20260507164336 51 45 1.7 2.6 0.00 0.00 0.00 85 1012.0
20260507163833 51 86 0.9 1.7 0.00 0.00 0.00 85 1012.1
20260507163331 51 70 0.9 1.7 0.00 0.00 0.00 85 1012.1
20260507162827 51 66 2.6 2.6 0.00 0.00 0.00 85 1011.9
20260507162323 50 94 0.9 1.7 0.00 0.00 0.00 86 1012.1
20260507161820 50 359 3.5 5.2 0.00 0.00 0.00 85 1012.1
20260507161316 50 51 3.5 5.2 0.00 0.00 0.00 85 1012.3
20260507160813 50 73 0.9 0.9 0.00 0.00 0.00 86 1012.5
20260507160309 50 46 0.9 1.7 0.00 0.00 0.00 87 1012.3
20260507155805 50 61 2.6 2.6 0.00 0.00 0.00 86 1012.3
20260507155301 50 65 0.9 0.9 0.00 0.00 0.00 88 1012.3
20260507154758 50 342 3.5 3.5 0.00 0.00 0.00 90 1012.2
20260507154255 50 67 1.7 1.7 0.00 0.00 0.00 90 1012.5
20260507153752 49 74 0.9 1.7 0.00 0.00 0.00 90 1012.9
20260507153248 49 50 5.2 6.1 0.00 0.00 0.00 90 1012.5
20260507152745 49 73 1.7 2.6 0.00 0.00 0.00 90 1012.7
20260507152241 49 343 0.9 1.7 0.00 0.00 0.00 90 1012.5
20260507151737 49 22 2.6 3.5 0.00 0.00 0.00 90 1012.5
20260507151234 49 68 2.6 2.6 0.00 0.00 0.00 89 1012.5
20260507150731 49 68 0.9 0.9 0.00 0.00 0.00 89 1012.7
20260507150228 49 55 1.7 2.6 0.00 0.00 0.00 89 1012.3
20260507145723 49 40 5.2 7.0 0.00 0.00 0.00 89 1012.7
20260507145220 49 98 0.0 0.9 0.00 0.00 0.00 88 1012.8
20260507144717 49 97 0.9 0.9 0.00 0.00 0.00 88 1012.5
20260507144215 49 103 0.9 0.9 0.00 0.00 0.00 87 1012.8
20260507143711 49 46 1.7 1.7 0.00 0.00 0.00 86 1012.8
20260507143208 49 87 0.9 1.7 0.00 0.00 0.00 86 1012.5
20260507142704 50 73 1.7 3.5 0.00 0.00 0.00 84 1012.5
20260507142201 50 57 5.2 6.1 0.00 0.00 0.00 84 1012.5
20260507141657 50 42 3.5 5.2 0.00 0.00 0.00 82 1012.7
20260507141154 50 3 3.5 5.2 0.00 0.00 0.00 80 1012.7
20260507140651 50 42 3.5 5.2 0.00 0.00 0.00 82 1012.5
20260507140148 50 10 2.6 5.2 0.00 0.00 0.00 82 1012.8
20260507135645 50 68 2.6 2.6 0.00 0.00 0.00 81 1013.1
20260507135143 51 298 4.3 6.1 0.00 0.00 0.00 82 1012.9
20260507134638 51 12 2.6 2.6 0.00 0.00 0.00 82 1012.9
20260507134135 51 43 3.5 5.2 0.00 0.00 0.00 82 1013.0
20260507133631 50 34 3.5 5.2 0.00 0.00 0.00 82 1012.9
20260507133129 50 66 3.5 5.2 0.00 0.00 0.00 82 1012.7
20260507132625 50 33 3.5 3.5 0.00 0.00 0.00 82 1013.1
20260507132121 50 56 1.7 2.6 0.00 0.00 0.00 82 1012.9
20260507131618 51 49 0.9 0.9 0.00 0.00 0.00 82 1013.1
20260507131116 51 1 2.6 3.5 0.00 0.00 0.00 83 1013.1
20260507130613 51 40 1.7 1.7 0.00 0.00 0.00 83 1013.1
20260507130111 51 38 3.5 3.5 0.00 0.00 0.00 83 1013.1
20260507125609 51 29 2.6 2.6 0.00 0.00 0.00 83 1013.0
20260507125106 51 74 2.6 5.2 0.00 0.00 0.00 83 1012.8
20260507124602 51 67 2.6 3.5 0.00 0.00 0.00 82 1012.7
20260507124100 51 56 4.3 6.1 0.00 0.00 0.00 83 1012.7
20260507123558 51 70 1.7 1.7 0.00 0.00 0.00 84 1012.9
20260507123055 51 67 2.6 5.2 0.00 0.00 0.00 84 1012.7
20260507122550 51 79 0.9 1.7 0.00 0.00 0.00 84 1012.8
20260507122046 51 74 1.7 1.7 0.00 0.00 0.00 85 1012.7
20260507121542 51 40 5.2 7.0 0.00 0.00 0.00 85 1012.7
20260507121038 51 65 2.6 2.6 0.00 0.00 0.00 85 1012.5
20260507120534 51 28 2.6 3.5 0.00 0.00 0.00 86 1012.6
20260507120031 51 62 3.5 5.2 0.00 0.00 0.00 85 1013.0
20260507115528 51 33 6.1 7.0 0.00 0.00 0.00 86 1012.6
20260507115023 51 70 2.6 3.5 0.00 0.00 0.00 88 1012.6
20260507114520 51 89 0.9 1.7 0.00 0.00 0.00 89 1012.5
20260507114017 51 59 0.9 0.9 0.00 0.00 0.00 89 1012.7
20260507113514 51 44 2.6 2.6 0.00 0.00 0.00 88 1012.7
20260507113011 51 65 1.7 2.6 0.00 0.00 0.00 89 1012.9
20260507112509 51 44 1.7 2.6 0.00 0.00 0.00 89 1012.5
20260507112005 51 72 0.0 0.9 0.00 0.00 0.00 89 1012.8
20260507111503 51 64 0.9 1.7 0.00 0.00 0.00 89 1012.7
20260507110959 51 55 0.9 1.7 0.00 0.00 0.00 89 1012.3
20260507110455 51 51 2.6 2.6 0.00 0.00 0.00 90 1012.2
20260507105952 51 83 0.9 1.7 0.00 0.00 0.00 90 1012.0
20260507105449 51 51 1.7 1.7 0.00 0.00 0.00 90 1012.2
20260507104945 51 79 0.9 0.9 0.00 0.00 0.00 91 1012.1
20260507104443 51 45 1.7 1.7 0.00 0.00 0.00 91 1011.9
20260507103939 51 78 0.9 0.9 0.00 0.00 0.00 91 1012.0
20260507103436 52 80 0.9 0.9 0.00 0.00 0.00 91 1011.6
20260507102931 52 66 0.9 1.7 0.00 0.00 0.00 91 1011.6
20260507102428 52 55 1.7 1.7 0.00 0.00 0.00 91 1011.8
20260507101925 52 94 0.9 0.9 0.00 0.00 0.00 91 1011.8
20260507101420 52 52 1.7 2.6 0.00 0.00 0.00 91 1011.5
20260507100916 53 77 1.7 1.7 0.00 0.00 0.00 90 1011.7
20260507100414 53 78 0.9 0.9 0.00 0.00 0.00 90 1011.8
20260507095912 53 71 0.9 0.9 0.00 0.00 0.00 89 1011.9
20260507095409 54 67 0.0 0.9 0.00 0.00 0.00 88 1011.8
20260507094906 55 87 1.7 2.6 0.00 0.00 0.00 87 1011.6
20260507094402 56 56 2.6 2.6 0.00 0.00 0.00 85 1011.6
20260507093859 56 76 1.7 1.7 0.00 0.00 0.00 85 1011.7
20260507093358 56 151 0.9 0.9 0.00 0.00 0.00 85 1011.7
20260507092855 56 342 1.7 1.7 0.00 0.00 0.00 87 1011.6
20260507092351 56 85 0.9 0.9 0.00 0.00 0.00 88 1011.3
20260507091848 56 106 0.0 0.0 0.00 0.00 0.00 89 1011.3
20260507091345 56 84 1.7 1.7 0.00 0.00 0.00 89 1011.2
20260507090840 56 101 0.9 0.9 0.00 0.00 0.00 89 1011.6
20260507090337 56 106 0.0 0.0 0.00 0.00 0.00 89 1011.7
20260507085834 56 124 0.0 0.0 0.00 0.00 0.00 89 1011.7
20260507085331 56 118 0.0 0.0 0.00 0.00 0.00 89 1011.7
20260507084828 56 132 0.0 0.0 0.00 0.00 0.00 89 1012.0
20260507084324 56 191 0.9 0.9 0.00 0.00 0.00 89 1011.9
20260507083822 56 199 1.7 1.7 0.00 0.00 0.00 89 1012.0
20260507083318 56 102 0.0 0.0 0.00 0.00 0.00 88 1011.3
20260507082814 57 120 0.0 0.0 0.00 0.00 0.00 87 1011.4
20260507082310 57 119 0.0 0.0 0.00 0.00 0.00 87 1011.3
20260507081808 56 125 1.7 2.6 0.00 0.00 0.00 88 1011.1
20260507081303 56 121 0.0 0.0 0.00 0.00 0.00 89 1011.5
20260507080800 56 122 0.9 0.9 0.00 0.00 0.00 88 1011.5
20260507080256 56 108 0.0 0.0 0.00 0.00 0.00 88 1011.5
20260507075752 57 109 0.0 0.0 0.00 0.00 0.00 87 1011.6
20260507075248 57 123 0.0 0.9 0.00 0.00 0.00 87 1011.4
20260507074744 57 115 0.0 0.0 0.00 0.00 0.00 86 1011.5
20260507074243 57 114 0.0 0.0 0.00 0.00 0.00 85 1011.3
20260507073739 58 108 0.0 0.0 0.00 0.00 0.00 84 1011.3
20260507073235 58 125 0.0 0.0 0.00 0.00 0.00 84 1011.4
20260507072734 58 130 0.0 0.9 0.00 0.00 0.00 85 1011.4
20260507072231 58 207 2.6 3.5 0.00 0.00 0.00 86 1011.5
20260507071728 58 169 0.9 1.7 0.00 0.00 0.00 86 1011.6
20260507071224 58 204 2.6 2.6 0.00 0.00 0.00 85 1011.6
20260507070721 58 189 1.7 1.7 0.00 0.00 0.00 85 1011.4
20260507070218 59 154 2.6 2.6 0.00 0.00 0.00 85 1011.2
20260507065715 59 173 1.7 2.6 0.00 0.00 0.00 84 1011.1
20260507065212 59 217 2.6 2.6 0.00 0.00 0.00 83 1011.1
20260507064709 59 202 2.6 3.5 0.00 0.00 0.00 83 1011.2
20260507064208 59 185 4.3 6.1 0.00 0.00 0.00 83 1011.0
20260507063705 58 127 1.7 2.6 0.00 0.00 0.00 85 1011.3
20260507063202 58 192 3.5 3.5 0.00 0.00 0.00 86 1011.1
20260507062659 58 129 1.7 1.7 0.00 0.00 0.00 86 1011.1
20260507062156 59 122 0.0 0.0 0.00 0.00 0.00 85 1011.2
20260507061654 59 123 0.0 0.9 0.00 0.00 0.00 84 1011.5
20260507061151 59 199 2.6 2.6 0.00 0.00 0.00 83 1011.5
20260507060649 59 266 2.6 3.5 0.00 0.00 0.00 83 1011.8
20260507060145 60 259 5.2 7.0 0.00 0.00 0.00 83 1011.6
20260507055641 60 277 5.2 7.8 0.00 0.00 0.00 84 1011.6
20260507055137 60 250 3.5 6.1 0.00 0.00 0.00 84 1011.9
20260507054633 60 228 8.7 9.6 0.00 0.00 0.00 85 1012.0
20260507054130 60 258 5.2 7.8 0.00 0.00 0.00 89 1011.8
20260507053628 60 326 4.3 6.1 0.00 0.00 0.00 91 1011.9
20260507053126 61 198 2.6 3.5 0.00 0.00 0.00 91 1011.7
20260507052624 61 263 4.3 6.1 0.00 0.00 0.00 91 1011.8
20260507052120 61 220 3.5 5.2 0.00 0.00 0.00 91 1011.6
20260507051618 61 249 2.6 2.6 0.00 0.00 0.00 91 1011.6
20260507051115 61 264 6.1 7.8 0.00 0.00 0.00 91 1011.4
20260507050611 60 267 3.5 3.5 0.00 0.00 0.00 92 1011.2
20260507050108 60 249 3.5 5.2 0.00 0.00 0.00 92 1011.0
20260507045605 61 237 2.6 2.6 0.00 0.00 0.00 91 1010.8
20260507045102 61 196 1.7 1.7 0.00 0.00 0.00 91 1010.7
20260507044558 61 202 1.7 1.7 0.00 0.00 0.00 91 1010.3
20260507044055 61 177 2.6 2.6 0.00 0.00 0.00 91 1010.0
20260507043551 61 182 0.9 1.7 0.00 0.00 0.00 91 1010.4
20260507043049 61 194 1.7 1.7 0.00 0.00 0.00 90 1010.9
20260507042544 61 159 2.6 3.5 0.00 0.00 0.00 90 1010.8
20260507042040 61 140 0.9 1.7 0.00 0.00 0.00 89 1011.2
20260507041537 62 197 1.7 2.6 0.00 0.00 0.00 88 1011.5
20260507041034 62 207 3.5 5.2 0.00 0.00 0.00 87 1011.7
20260507040530 62 214 6.1 7.0 0.00 0.00 0.00 87 1011.3
20260507040026 62 229 5.2 7.8 0.00 0.05 0.05 86 1011.4
20260507035523 62 206 5.2 6.1 0.00 0.05 0.05 87 1011.5
20260507035019 62 206 3.5 3.5 0.00 0.05 0.05 87 1011.5
20260507034516 62 191 2.6 2.6 0.00 0.05 0.05 87 1011.5